DW6949 Weather Reports


Display with metric or nautical units.
time (UTC)temp
F
wind
direction
speed
MPH
gust
MPH
rain 1hr
in
rain 24hr
in
rain mn
in
humidity
%
barometer
mb
20260508183053 69 125 1.0 3.0 0.03 0.05 0.05 92 1012.3
20260508181605 69 121 0.0 2.0 0.04 0.05 0.05 92 1012.3
20260508180052 69 0 0.0 1.0 0.03 0.04 0.04 92 1012.7
20260508174549 68 0 0.0 1.0 0.02 0.03 0.03 92 1013.0
20260508173051 68 0 0.0 2.0 0.01 0.02 0.02 91 1013.1
20260508171547 68 0 0.0 2.0 0.01 0.01 0.01 91 1013.2
20260508170047 68 146 0.0 3.0 0.01 0.01 0.01 90 1013.2
20260508164601 68 150 0.0 5.0 0.01 0.01 0.01 90 1013.4
20260508163049 69 129 0.0 4.0 0.00 0.00 0.00 90 1013.1
20260508161552 68 138 0.0 1.0 0.00 0.00 0.00 88 1013.8
20260508160051 68 0 0.0 2.0 0.00 0.00 0.00 88 1013.9
20260508154552 68 0 0.0 2.0 0.00 0.00 0.00 89 1014.1
20260508153053 68 143 0.0 2.0 0.00 0.00 0.00 90 1014.1
20260508151601 68 148 1.0 4.0 0.00 0.00 0.00 90 1013.8
20260508150100 68 153 1.0 6.0 0.00 0.00 0.00 90 1014.1
20260508144619 68 148 1.0 6.0 0.00 0.00 0.00 89 1013.8
20260508143106 69 0 0.0 1.0 0.00 0.00 0.00 89 1013.8
20260508141602 69 0 0.0 3.0 0.00 0.00 0.00 88 1013.8
20260508140056 68 0 0.0 2.0 0.00 0.00 0.00 88 1014.1
20260508134557 68 122 1.0 5.0 0.00 0.00 0.00 88 1013.6
20260508133114 68 0 0.0 1.0 0.00 0.00 0.00 89 1013.8
20260508131549 68 139 0.0 1.0 0.00 0.00 0.00 88 1013.9
20260508130045 68 0 0.0 1.0 0.00 0.00 0.00 88 1014.1
20260508124550 67 0 0.0 3.0 0.00 0.00 0.00 88 1014.0
20260508123059 67 0 0.0 2.0 0.00 0.00 0.00 88 1014.0
20260508121548 67 144 0.0 3.0 0.00 0.00 0.00 88 1013.6
20260508120052 67 143 0.0 4.0 0.00 0.00 0.00 88 1014.1
20260508114554 67 160 1.0 7.0 0.00 0.00 0.00 87 1014.4
20260508113106 67 154 0.0 7.0 0.00 0.00 0.00 86 1013.8
20260508111547 68 137 0.0 1.0 0.00 0.00 0.00 84 1013.3
20260508110058 68 0 0.0 3.0 0.00 0.00 0.00 83 1014.0
20260508104547 68 147 0.0 3.0 0.00 0.00 0.00 83 1013.8
20260508103058 69 162 2.0 5.0 0.00 0.00 0.00 82 1013.6
20260508101551 69 0 0.0 2.0 0.00 0.00 0.00 82 1013.3
20260508100053 70 0 0.0 4.0 0.00 0.00 0.00 81 1013.9
20260508094550 70 0 0.0 3.0 0.00 0.00 0.00 80 1013.7
20260508093049 70 147 0.0 4.0 0.00 0.00 0.00 80 1013.4
20260508091558 70 0 0.0 2.0 0.00 0.00 0.00 79 1013.2
20260508090108 70 116 1.0 3.0 0.00 0.00 0.00 79 1012.9
20260508084549 70 0 0.0 0.0 0.00 0.00 0.00 79 1013.6
20260508083050 70 153 0.0 1.0 0.00 0.00 0.00 79 1013.9
20260508081558 70 146 0.0 2.0 0.00 0.00 0.00 79 1013.6
20260508080052 70 0 0.0 4.0 0.00 0.00 0.00 79 1013.5
20260508074548 70 146 1.0 3.0 0.00 0.00 0.00 79 1013.8
20260508073051 70 150 0.0 2.0 0.00 0.00 0.00 79 1014.2
20260508071554 70 156 0.0 2.0 0.00 0.00 0.00 79 1014.0
20260508070053 71 0 0.0 2.0 0.00 0.00 0.00 79 1013.8
20260508064551 70 150 0.0 2.0 0.00 0.00 0.00 79 1014.2
20260508063045 70 0 0.0 1.0 0.00 0.00 0.00 78 1014.3
20260508061550 70 152 0.0 1.0 0.00 0.00 0.00 77 1014.0
20260508060047 71 0 0.0 0.0 0.00 0.00 0.00 76 1014.1
20260508054550 71 0 0.0 0.0 0.00 0.00 0.00 75 1014.3
20260508053109 71 149 0.0 2.0 0.00 0.00 0.00 75 1014.1
20260508051554 71 151 1.0 3.0 0.00 0.00 0.00 75 1014.2
20260508050054 71 146 0.0 4.0 0.00 0.00 0.00 75 1014.2
20260508044554 71 153 1.0 3.0 0.00 0.00 0.00 75 1014.4
20260508043056 71 143 1.0 4.0 0.00 0.00 0.00 75 1014.1
20260508041611 72 0 0.0 3.0 0.00 0.00 0.00 75 1014.1
20260508040106 72 155 0.0 2.0 0.00 0.00 0.00 75 1014.4
20260508034546 72 139 0.0 2.0 0.00 0.00 0.00 75 1013.5
20260508033050 72 143 0.0 1.0 0.00 0.00 0.00 75 1014.2
20260508031557 72 0 0.0 2.0 0.00 0.00 0.00 75 1014.7
20260508030047 73 0 0.0 2.0 0.00 0.00 0.00 75 1014.6
20260508024553 73 151 0.0 2.0 0.00 0.00 0.00 74 1014.6
20260508023053 73 154 0.0 1.0 0.00 0.00 0.00 74 1014.7
20260508021550 73 0 0.0 1.0 0.00 0.00 0.00 73 1014.3
20260508020051 73 0 0.0 4.0 0.00 0.00 0.00 73 1014.4
20260508014550 74 150 0.0 3.0 0.00 0.00 0.00 73 1014.4
20260508013045 75 139 0.0 1.0 0.00 0.00 0.00 72 1014.4
20260508011556 75 0 0.0 1.0 0.00 0.00 0.00 71 1014.6
20260508010047 75 146 0.0 3.0 0.00 0.00 0.00 70 1014.8
20260508004554 75 153 1.0 6.0 0.00 0.00 0.00 70 1015.0
20260508003047 76 144 1.0 3.0 0.00 0.00 0.00 70 1014.5
20260508001549 76 143 0.0 1.0 0.00 0.00 0.00 72 1014.7
20260508000046 77 136 0.0 1.0 0.00 0.00 0.00 71 1014.6
20260507234545 77 143 0.0 4.0 0.00 0.00 0.00 70 1014.7
20260507233059 78 150 2.0 5.0 0.00 0.00 0.00 70 1014.7
20260507231547 79 150 1.0 3.0 0.00 0.00 0.00 67 1014.4
20260507230045 79 127 0.0 2.0 0.00 0.00 0.00 67 1014.2
20260507224557 80 140 0.0 3.0 0.00 0.00 0.00 66 1014.3
20260507223052 79 146 0.0 2.0 0.00 0.00 0.00 68 1014.1
20260507221547 79 134 0.0 3.0 0.00 0.00 0.00 68 1014.2
20260507220049 79 143 0.0 7.0 0.00 0.00 0.00 69 1014.3
20260507214543 79 137 1.0 8.0 0.00 0.00 0.00 70 1014.4
20260507213100 78 206 1.0 6.0 0.00 0.00 0.00 71 1014.5
20260507211549 77 126 3.0 7.0 0.00 0.00 0.00 69 1014.6
20260507210054 78 212 1.0 3.0 0.00 0.00 0.00 69 1014.9
20260507204551 78 146 1.0 4.0 0.00 0.00 0.00 68 1015.0
20260507203046 79 138 0.0 2.0 0.00 0.00 0.00 67 1015.1
20260507201546 77 132 1.0 8.0 0.00 0.00 0.00 70 1015.3
20260507200051 76 146 4.0 8.0 0.00 0.00 0.00 71 1015.0
20260507194615 76 146 1.0 6.0 0.00 0.00 0.00 70 1015.2
20260507193045 74 135 2.0 11.0 0.00 0.00 0.00 72 1015.7
20260507191551 73 128 3.0 11.0 0.00 0.00 0.00 74 1016.0
20260507190051 72 180 3.0 12.0 0.00 0.00 0.00 73 1016.4
20260507184551 72 146 2.0 6.0 0.00 0.00 0.00 73 1016.5